Time,TemperatureF,DewpointF,PressureIn,WindDirection,WindDirectionDegrees,WindSpeedMPH,WindSpeedGustMPH,Humidity,HourlyPrecipIn,Conditions,Clouds,dailyrainin,SoftwareType,DateUTC
2013-03-19 00:02:00,9.5,2.9,29.83,WNW,292,12.1,18.4,74,0.00,CLR,CLR,0.00,WeatherDisplay:10.37,2013-03-19 05:02:00,
2013-03-19 00:08:00,9.5,2.9,29.83,WNW,292,12.7,19.6,74,0.00,CLR,CLR,0.00,WeatherDisplay:10.37,2013-03-19 05:08:00,
2013-03-19 00:13:00,9.3,2.7,29.82,WNW,292,9.6,13.8,74,0.00,CLR,CLR,0.00,WeatherDisplay:10.37,2013-03-19 05:13:00,
2013-03-19 00:18:00,9.3,2.7,29.82,WNW,292,14.0,14.0,74,0.00,CLR,CLR,0.00,WeatherDisplay:10.37,2013-03-19 05:18:00,
2013-03-19 00:23:00,9.1,2.5,29.83,WSW,248,10.5,13.8,74,0.00,CLR,CLR,0.00,WeatherDisplay:10.37,2013-03-19 05:23:00,
2013-03-19 00:28:00,9.1,2.5,29.82,WNW,292,10.1,10.4,74,0.00,CLR,CLR,0.00,WeatherDisplay:10.37,2013-03-19 05:28:00,
2013-03-19 00:33:00,9.1,2.5,29.82,WNW,292,11.2,11.2,74,0.00,CLR,CLR,0.00,WeatherDisplay:10.37,2013-03-19 05:33:00,
2013-03-19 00:38:00,9.1,2.5,29.83,WNW,292,13.4,16.1,74,0.00,CLR,CLR,0.00,WeatherDisplay:10.37,2013-03-19 05:38:00,
2013-03-19 00:43:00,9.1,2.5,29.83,West,270,12.9,19.6,74,0.00,CLR,CLR,0.00,WeatherDisplay:10.37,2013-03-19 05:43:00,
2013-03-19 00:49:00,9.1,2.5,29.82,West,270,12.7,15.0,74,0.00,CLR,CLR,0.00,WeatherDisplay:10.37,2013-03-19 05:49:00,
2013-03-19 00:54:00,9.1,2.5,29.82,NW,315,9.5,11.5,74,0.00,CLR,CLR,0.00,WeatherDisplay:10.37,2013-03-19 05:54:00,
2013-03-19 00:59:00,9.1,2.5,29.82,West,270,7.8,10.4,74,0.00,CLR,CLR,0.00,WeatherDisplay:10.37,2013-03-19 05:59:00,
2013-03-19 01:04:00,9.0,2.4,29.82,West,270,10.0,12.7,74,0.00,CLR,CLR,0.00,WeatherDisplay:10.37,2013-03-19 06:04:00,
2013-03-19 01:09:00,9.0,2.6,29.82,NW,315,9.8,14.1,75,0.00,CLR,CLR,0.00,WeatherDisplay:10.37,2013-03-19 06:09:00,
2013-03-19 01:14:00,9.0,2.4,29.83,NW,315,9.4,11.5,74,0.00,CLR,CLR,0.00,WeatherDisplay:10.37,2013-03-19 06:14:00,
2013-03-19 01:20:00,9.0,2.4,29.83,WNW,292,14.5,19.6,74,0.00,CLR,CLR,0.00,WeatherDisplay:10.37,2013-03-19 06:20:00,
2013-03-19 01:25:00,8.8,2.2,29.84,West,270,10.6,13.8,74,0.00,CLR,CLR,0.00,WeatherDisplay:10.37,2013-03-19 06:25:00,
2013-03-19 01:30:00,8.8,2.2,29.83,West,270,10.2,17.3,74,0.00,CLR,CLR,0.00,WeatherDisplay:10.37,2013-03-19 06:30:00,
2013-03-19 01:35:00,8.8,2.2,29.83,West,270,7.5,10.4,74,0.00,CLR,CLR,0.00,WeatherDisplay:10.37,2013-03-19 06:35:00,
2013-03-19 01:40:00,8.4,2.1,29.84,West,270,9.0,13.8,75,0.00,CLR,CLR,0.00,WeatherDisplay:10.37,2013-03-19 06:40:00,
2013-03-19 01:45:00,8.4,2.1,29.84,West,270,12.8,16.1,75,0.00,CLR,CLR,0.00,WeatherDisplay:10.37,2013-03-19 06:45:00,
2013-03-19 01:50:00,8.4,2.1,29.84,WNW,292,9.4,11.5,75,0.00,CLR,CLR,0.00,WeatherDisplay:10.37,2013-03-19 06:50:00,
2013-03-19 01:55:00,8.4,2.1,29.84,West,270,8.7,12.7,75,0.00,CLR,CLR,0.00,WeatherDisplay:10.37,2013-03-19 06:55:00,
2013-03-19 02:00:00,8.4,2.1,29.84,West,270,13.3,25.3,75,0.00,CLR,CLR,0.00,WeatherDisplay:10.37,2013-03-19 07:00:00,
2013-03-19 02:06:00,8.4,2.1,29.84,West,270,11.6,16.1,75,0.00,CLR,CLR,0.00,WeatherDisplay:10.37,2013-03-19 07:06:00,
2013-03-19 02:11:00,8.4,2.1,29.85,WNW,292,9.3,13.8,75,0.00,CLR,CLR,0.00,WeatherDisplay:10.37,2013-03-19 07:11:00,
2013-03-19 02:16:00,8.2,1.9,29.85,WNW,292,10.6,15.0,75,0.00,CLR,CLR,0.00,WeatherDisplay:10.37,2013-03-19 07:16:00,
2013-03-19 02:21:00,8.2,1.9,29.85,West,270,14.4,19.6,75,0.00,CLR,CLR,0.00,WeatherDisplay:10.37,2013-03-19 07:21:00,
2013-03-19 02:26:00,8.1,1.8,29.85,WNW,292,9.0,10.4,75,0.00,CLR,CLR,0.00,WeatherDisplay:10.37,2013-03-19 07:26:00,
2013-03-19 02:31:00,7.9,1.6,29.86,WSW,248,12.8,16.1,75,0.00,CLR,CLR,0.00,WeatherDisplay:10.37,2013-03-19 07:31:00,
2013-03-19 02:36:00,7.9,1.6,29.86,West,270,10.3,12.7,75,0.00,CLR,CLR,0.00,WeatherDisplay:10.37,2013-03-19 07:36:00,
2013-03-19 02:41:00,7.9,1.6,29.86,WNW,292,9.5,15.0,75,0.00,CLR,CLR,0.00,WeatherDisplay:10.37,2013-03-19 07:41:00,
2013-03-19 02:46:00,7.9,1.6,29.86,West,270,8.2,13.8,75,0.00,CLR,CLR,0.00,WeatherDisplay:10.37,2013-03-19 07:46:00,
2013-03-19 02:51:00,7.9,1.6,29.87,West,270,9.0,16.1,75,0.00,CLR,CLR,0.00,WeatherDisplay:10.37,2013-03-19 07:51:00,
2013-03-19 02:57:00,7.7,1.4,29.86,WNW,292,8.9,15.0,75,0.00,CLR,CLR,0.00,WeatherDisplay:10.37,2013-03-19 07:57:00,
2013-03-19 03:02:00,7.7,1.4,29.87,West,270,9.4,11.5,75,0.00,CLR,CLR,0.00,WeatherDisplay:10.37,2013-03-19 08:02:00,
2013-03-19 03:07:00,7.5,1.2,29.87,NW,315,10.7,10.7,75,0.00,CLR,CLR,0.00,WeatherDisplay:10.37,2013-03-19 08:07:00,
2013-03-19 03:12:00,7.7,1.4,29.86,WNW,292,9.0,11.5,75,0.00,CLR,CLR,0.00,WeatherDisplay:10.37,2013-03-19 08:12:00,
2013-03-19 03:17:00,7.5,1.0,29.87,WNW,292,8.4,12.7,74,0.00,CLR,CLR,0.00,WeatherDisplay:10.37,2013-03-19 08:17:00,
2013-03-19 03:23:00,7.5,1.0,29.87,West,270,8.1,12.7,74,0.00,CLR,CLR,0.00,WeatherDisplay:10.37,2013-03-19 08:23:00,
2013-03-19 03:28:00,7.3,0.8,29.87,West,270,10.2,13.8,74,0.00,CLR,CLR,0.00,WeatherDisplay:10.37,2013-03-19 08:28:00,
2013-03-19 03:33:00,7.3,0.8,29.87,West,270,8.5,16.3,74,0.00,CLR,CLR,0.00,WeatherDisplay:10.37,2013-03-19 08:33:00,
2013-03-19 03:39:00,7.2,0.6,29.87,WNW,292,7.0,12.7,74,0.00,CLR,CLR,0.00,WeatherDisplay:10.37,2013-03-19 08:39:00,
2013-03-19 03:44:00,7.0,0.4,29.88,West,270,8.0,10.4,74,0.00,CLR,CLR,0.00,WeatherDisplay:10.37,2013-03-19 08:44:00,
2013-03-19 03:49:00,7.0,0.4,29.88,WNW,292,11.5,13.8,74,0.00,CLR,CLR,0.00,WeatherDisplay:10.37,2013-03-19 08:49:00,
2013-03-19 03:54:00,7.0,0.4,29.88,WNW,292,7.6,10.4,74,0.00,CLR,CLR,0.00,WeatherDisplay:10.37,2013-03-19 08:54:00,
2013-03-19 03:59:00,6.6,0.1,29.88,WNW,292,8.8,12.7,74,0.00,CLR,CLR,0.00,WeatherDisplay:10.37,2013-03-19 08:59:00,
2013-03-19 04:04:00,6.6,0.1,29.89,WNW,292,8.7,15.0,74,0.00,CLR,CLR,0.00,WeatherDisplay:10.37,2013-03-19 09:04:00,
2013-03-19 04:09:00,6.6,0.1,29.89,West,270,10.5,11.5,74,0.00,CLR,CLR,0.00,WeatherDisplay:10.37,2013-03-19 09:09:00,
2013-03-19 04:15:00,6.4,-0.1,29.88,West,270,12.3,18.4,74,0.00,CLR,CLR,0.00,WeatherDisplay:10.37,2013-03-19 09:15:00,
2013-03-19 04:20:00,6.4,0.2,29.88,West,270,12.8,17.3,75,0.00,CLR,CLR,0.00,WeatherDisplay:10.37,2013-03-19 09:20:00,
2013-03-19 04:25:00,6.1,-0.4,29.89,WNW,292,9.4,15.0,74,0.00,CLR,CLR,0.00,WeatherDisplay:10.37,2013-03-19 09:25:00,
2013-03-19 04:30:00,6.1,-0.4,29.89,West,270,12.4,17.3,74,0.00,CLR,CLR,0.00,WeatherDisplay:10.37,2013-03-19 09:30:00,
2013-03-19 04:35:00,6.1,-0.4,29.88,WNW,292,9.7,16.5,74,0.00,CLR,CLR,0.00,WeatherDisplay:10.37,2013-03-19 09:35:00,
2013-03-19 04:40:00,6.1,-0.4,29.89,WNW,292,10.1,20.8,74,0.00,CLR,CLR,0.00,WeatherDisplay:10.37,2013-03-19 09:40:00,
2013-03-19 04:45:00,6.1,-0.4,29.89,West,270,11.0,13.8,74,0.00,CLR,CLR,0.00,WeatherDisplay:10.37,2013-03-19 09:45:00,
2013-03-19 04:50:00,6.1,-0.4,29.89,WNW,292,11.9,15.2,74,0.00,CLR,CLR,0.00,WeatherDisplay:10.37,2013-03-19 09:50:00,
2013-03-19 04:55:00,6.1,-0.4,29.90,WNW,292,11.0,16.1,74,0.00,CLR,CLR,0.00,WeatherDisplay:10.37,2013-03-19 09:55:00,
2013-03-19 05:00:00,5.9,-0.6,29.90,WNW,292,8.2,11.5,74,0.00,CLR,CLR,0.00,WeatherDisplay:10.37,2013-03-19 10:00:00,
2013-03-19 05:05:00,5.9,-0.6,29.90,WNW,292,8.8,12.7,74,0.00,CLR,CLR,0.00,WeatherDisplay:10.37,2013-03-19 10:05:00,
2013-03-19 05:10:00,5.7,-0.8,29.90,North,0,10.2,12.7,74,0.00,CLR,CLR,0.00,WeatherDisplay:10.37,2013-03-19 10:10:00,
2013-03-19 05:16:00,5.5,-1.0,29.91,WSW,248,11.6,13.8,74,0.00,CLR,CLR,0.00,WeatherDisplay:10.37,2013-03-19 10:16:00,
2013-03-19 05:21:00,5.5,-1.0,29.91,West,270,8.0,9.2,74,0.00,CLR,CLR,0.00,WeatherDisplay:10.37,2013-03-19 10:21:00,
2013-03-19 05:26:00,5.5,-1.0,29.92,WNW,292,7.8,19.4,74,0.00,CLR,CLR,0.00,WeatherDisplay:10.37,2013-03-19 10:26:00,
2013-03-19 05:31:00,5.4,-0.8,29.92,WSW,248,10.2,13.6,75,0.00,CLR,CLR,0.00,WeatherDisplay:10.37,2013-03-19 10:31:00,
2013-03-19 05:37:00,5.4,-0.8,29.92,West,270,7.0,9.2,75,0.00,CLR,CLR,0.00,WeatherDisplay:10.37,2013-03-19 10:37:00,
2013-03-19 05:42:00,5.4,-0.8,29.92,West,270,8.6,10.5,75,0.00,CLR,CLR,0.00,WeatherDisplay:10.37,2013-03-19 10:42:00,
2013-03-19 05:47:00,5.2,-1.0,29.92,WNW,292,9.5,12.7,75,0.00,CLR,CLR,0.00,WeatherDisplay:10.37,2013-03-19 10:47:00,
2013-03-19 05:52:00,5.2,-1.3,29.92,WNW,292,11.1,15.6,74,0.00,CLR,CLR,0.00,WeatherDisplay:10.37,2013-03-19 10:52:00,
2013-03-19 05:57:00,5.0,-1.5,29.93,WNW,292,10.4,15.0,74,0.00,CLR,CLR,0.00,WeatherDisplay:10.37,2013-03-19 10:57:00,
2013-03-19 06:03:00,4.8,-1.7,29.92,West,270,6.6,12.1,74,0.00,CLR,CLR,0.00,WeatherDisplay:10.37,2013-03-19 11:03:00,
2013-03-19 06:08:00,4.8,-1.7,29.93,West,270,12.4,15.0,74,0.00,CLR,CLR,0.00,WeatherDisplay:10.37,2013-03-19 11:08:00,
2013-03-19 06:13:00,4.8,-1.7,29.93,West,270,6.2,11.8,74,0.00,CLR,CLR,0.00,WeatherDisplay:10.37,2013-03-19 11:13:00,
2013-03-19 06:18:00,4.8,-1.7,29.93,WNW,292,9.3,19.6,74,0.00,CLR,CLR,0.00,WeatherDisplay:10.37,2013-03-19 11:18:00,
2013-03-19 06:23:00,4.8,-1.7,29.93,WNW,292,9.4,15.0,74,0.00,CLR,CLR,0.00,WeatherDisplay:10.37,2013-03-19 11:23:00,
2013-03-19 06:28:00,4.6,-1.8,29.94,WNW,292,11.1,16.1,74,0.00,CLR,CLR,0.00,WeatherDisplay:10.37,2013-03-19 11:28:00,
2013-03-19 06:34:00,4.6,-1.8,29.94,WNW,292,7.9,14.1,74,0.00,CLR,CLR,0.00,WeatherDisplay:10.37,2013-03-19 11:34:00,
2013-03-19 06:39:00,4.6,-1.8,29.95,West,270,11.0,11.5,74,0.00,CLR,CLR,0.00,WeatherDisplay:10.37,2013-03-19 11:39:00,
2013-03-19 06:44:00,4.6,-1.8,29.95,West,270,11.1,12.7,74,0.00,CLR,CLR,0.00,WeatherDisplay:10.37,2013-03-19 11:44:00,
2013-03-19 06:50:00,4.5,-2.0,29.95,WNW,292,7.3,11.4,74,0.00,CLR,CLR,0.00,WeatherDisplay:10.37,2013-03-19 11:50:00,
2013-03-19 06:55:00,4.5,-2.0,29.96,WNW,292,8.0,11.5,74,0.00,CLR,CLR,0.00,WeatherDisplay:10.37,2013-03-19 11:55:00,
2013-03-19 07:00:00,4.3,-2.2,29.96,West,270,9.9,17.3,74,0.00,CLR,CLR,0.00,WeatherDisplay:10.37,2013-03-19 12:00:00,
2013-03-19 07:05:00,4.3,-2.2,29.96,WNW,292,9.2,18.4,74,0.00,CLR,CLR,0.00,WeatherDisplay:10.37,2013-03-19 12:05:00,
2013-03-19 07:10:00,4.1,-2.4,29.96,West,270,9.9,10.4,74,0.00,CLR,CLR,0.00,WeatherDisplay:10.37,2013-03-19 12:10:00,
2013-03-19 07:15:00,4.1,-2.1,29.96,West,270,9.5,11.5,75,0.00,CLR,CLR,0.00,WeatherDisplay:10.37,2013-03-19 12:15:00,
2013-03-19 07:20:00,3.9,-2.2,29.97,West,270,6.4,8.1,75,0.00,CLR,CLR,0.00,WeatherDisplay:10.37,2013-03-19 12:20:00,
2013-03-19 07:25:00,3.9,-2.2,29.98,WNW,292,8.1,11.5,75,0.00,CLR,CLR,0.00,WeatherDisplay:10.37,2013-03-19 12:25:00,
2013-03-19 07:31:00,3.7,-2.7,29.97,WNW,292,6.3,11.5,74,0.00,CLR,CLR,0.00,WeatherDisplay:10.37,2013-03-19 12:31:00,
2013-03-19 07:36:00,3.7,-2.4,29.98,WNW,292,7.3,11.5,75,0.00,CLR,CLR,0.00,WeatherDisplay:10.37,2013-03-19 12:36:00,
2013-03-19 07:41:00,3.6,-2.6,29.98,West,270,5.8,10.4,75,0.00,CLR,CLR,0.00,WeatherDisplay:10.37,2013-03-19 12:41:00,
2013-03-19 07:46:00,3.6,-2.6,29.98,WNW,292,8.7,10.4,75,0.00,CLR,CLR,0.00,WeatherDisplay:10.37,2013-03-19 12:46:00,
2013-03-19 07:52:00,3.7,-2.7,29.98,West,270,6.9,9.2,74,0.00,CLR,CLR,0.00,WeatherDisplay:10.37,2013-03-19 12:52:00,
2013-03-19 07:57:00,3.7,-2.7,29.98,West,270,9.3,11.5,74,0.00,CLR,CLR,0.00,WeatherDisplay:10.37,2013-03-19 12:57:00,
2013-03-19 08:02:00,3.7,-2.7,29.99,WSW,248,5.2,9.2,74,0.00,CLR,CLR,0.00,WeatherDisplay:10.37,2013-03-19 13:02:00,
2013-03-19 08:07:00,3.7,-2.7,29.99,WNW,292,8.7,11.5,74,0.00,CLR,CLR,0.00,WeatherDisplay:10.37,2013-03-19 13:07:00,
2013-03-19 08:13:00,3.9,-2.5,29.99,WNW,292,7.6,9.2,74,0.00,CLR,CLR,0.00,WeatherDisplay:10.37,2013-03-19 13:13:00,
2013-03-19 08:18:00,4.1,-2.4,30.00,WNW,292,9.1,11.5,74,0.00,CLR,CLR,0.00,WeatherDisplay:10.37,2013-03-19 13:18:00,
2013-03-19 08:23:00,4.5,-2.0,30.00,WNW,292,8.2,13.0,74,0.00,CLR,CLR,0.00,WeatherDisplay:10.37,2013-03-19 13:23:00,
2013-03-19 08:28:00,4.8,-1.9,30.00,WNW,292,7.6,11.5,73,0.00,CLR,CLR,0.00,WeatherDisplay:10.37,2013-03-19 13:28:00,
2013-03-19 08:33:00,4.8,-1.9,30.00,WNW,292,5.5,11.5,73,0.00,CLR,CLR,0.00,WeatherDisplay:10.37,2013-03-19 13:33:00,
2013-03-19 08:38:00,5.4,-1.7,30.00,WNW,292,10.5,12.7,72,0.00,CLR,CLR,0.00,WeatherDisplay:10.37,2013-03-19 13:38:00,
2013-03-19 08:43:00,5.5,-1.5,29.99,West,270,9.2,10.4,72,0.00,CLR,CLR,0.00,WeatherDisplay:10.37,2013-03-19 13:43:00,
2013-03-19 08:48:00,5.9,-1.5,30.00,West,270,9.0,10.4,71,0.00,CLR,CLR,0.00,WeatherDisplay:10.37,2013-03-19 13:48:00,
2013-03-19 08:53:00,6.1,-1.3,30.00,West,270,9.0,15.0,71,0.00,CLR,CLR,0.00,WeatherDisplay:10.37,2013-03-19 13:53:00,
2013-03-19 08:58:00,6.6,-1.1,30.00,West,270,8.3,10.4,70,0.00,CLR,CLR,0.00,WeatherDisplay:10.37,2013-03-19 13:58:00,
2013-03-19 09:04:00,7.0,-0.7,30.00,West,270,10.4,12.7,70,0.00,CLR,CLR,0.00,WeatherDisplay:10.37,2013-03-19 14:04:00,
2013-03-19 09:09:00,7.2,-0.9,30.01,WNW,292,7.1,12.5,69,0.00,CLR,CLR,0.00,WeatherDisplay:10.37,2013-03-19 14:09:00,
2013-03-19 09:14:00,7.5,-0.8,30.01,West,270,8.4,12.7,68,0.00,CLR,CLR,0.00,WeatherDisplay:10.37,2013-03-19 14:14:00,
2013-03-19 09:20:00,8.1,-0.3,30.01,NW,315,9.3,12.5,68,0.00,CLR,CLR,0.00,WeatherDisplay:10.37,2013-03-19 14:20:00,
2013-03-19 09:25:00,8.2,-0.5,30.02,WNW,292,7.4,8.1,67,0.00,CLR,CLR,0.00,WeatherDisplay:10.37,2013-03-19 14:25:00,
2013-03-19 09:30:00,8.4,-0.6,30.02,WNW,292,7.6,12.7,66,0.00,CLR,CLR,0.00,WeatherDisplay:10.37,2013-03-19 14:30:00,
2013-03-19 09:35:00,9.0,-0.1,30.02,WNW,292,11.9,18.1,66,0.00,CLR,CLR,0.00,WeatherDisplay:10.37,2013-03-19 14:35:00,
2013-03-19 09:40:00,9.1,-0.3,30.03,WNW,292,13.2,16.1,65,0.00,CLR,CLR,0.00,WeatherDisplay:10.37,2013-03-19 14:40:00,
2013-03-19 09:45:00,9.5,0.1,30.03,WNW,292,9.2,10.4,65,0.00,CLR,CLR,0.00,WeatherDisplay:10.37,2013-03-19 14:45:00,
2013-03-19 09:50:00,10.0,0.3,30.03,West,270,10.4,14.5,64,0.00,CLR,CLR,0.00,WeatherDisplay:10.37,2013-03-19 14:50:00,
2013-03-19 09:56:00,10.2,0.4,30.03,WNW,292,11.9,16.1,64,0.00,CLR,CLR,0.00,WeatherDisplay:10.37,2013-03-19 14:56:00,
2013-03-19 10:01:00,10.6,0.5,30.03,NW,315,9.8,12.7,63,0.00,CLR,CLR,0.00,WeatherDisplay:10.37,2013-03-19 15:01:00,
2013-03-19 10:06:00,10.9,0.5,30.03,WNW,292,8.4,12.7,62,0.00,CLR,CLR,0.00,WeatherDisplay:10.37,2013-03-19 15:06:00,
2013-03-19 10:12:00,10.9,0.5,30.04,WNW,292,11.4,13.8,62,0.00,CLR,CLR,0.00,WeatherDisplay:10.37,2013-03-19 15:12:00,
2013-03-19 10:17:00,11.3,0.8,30.04,WNW,292,9.7,14.5,62,0.00,CLR,CLR,0.00,WeatherDisplay:10.37,2013-03-19 15:17:00,
2013-03-19 10:22:00,11.5,0.6,30.04,West,270,9.8,15.0,61,0.00,CLR,CLR,0.00,WeatherDisplay:10.37,2013-03-19 15:22:00,
2013-03-19 10:27:00,11.7,0.4,30.04,WNW,292,13.1,14.5,60,0.00,CLR,CLR,0.00,WeatherDisplay:10.37,2013-03-19 15:27:00,
2013-03-19 10:32:00,11.7,0.4,30.04,NW,315,12.3,17.2,60,0.00,CLR,CLR,0.00,WeatherDisplay:10.37,2013-03-19 15:32:00,
2013-03-19 10:37:00,12.0,0.8,30.05,WNW,292,9.5,13.8,60,0.00,CLR,CLR,0.00,WeatherDisplay:10.37,2013-03-19 15:37:00,
2013-03-19 10:42:00,12.4,1.1,30.05,West,270,11.7,16.5,60,0.00,CLR,CLR,0.00,WeatherDisplay:10.37,2013-03-19 15:42:00,
2013-03-19 10:48:00,12.6,0.6,30.05,WNW,292,15.0,18.4,58,0.00,CLR,CLR,0.00,WeatherDisplay:10.37,2013-03-19 15:48:00,
2013-03-19 10:53:00,12.7,1.5,30.05,West,270,10.3,15.0,60,0.00,CLR,CLR,0.00,WeatherDisplay:10.37,2013-03-19 15:53:00,
2013-03-19 10:58:00,13.3,1.2,30.05,WNW,292,8.6,10.4,58,0.00,CLR,CLR,0.00,WeatherDisplay:10.37,2013-03-19 15:58:00,
2013-03-19 11:03:00,13.6,1.6,30.05,WNW,292,13.4,18.4,58,0.00,CLR,CLR,0.00,WeatherDisplay:10.37,2013-03-19 16:03:00,
2013-03-19 11:09:00,13.6,1.2,30.05,West,270,15.2,18.4,57,0.00,CLR,CLR,0.00,WeatherDisplay:10.37,2013-03-19 16:09:00,
2013-03-19 11:14:00,13.8,1.4,30.05,WNW,292,11.8,13.8,57,0.00,CLR,CLR,0.00,WeatherDisplay:10.37,2013-03-19 16:14:00,
2013-03-19 11:19:00,14.2,1.7,30.05,NW,315,9.7,12.7,57,0.00,CLR,CLR,0.00,WeatherDisplay:10.37,2013-03-19 16:19:00,
2013-03-19 11:24:00,14.4,1.9,30.05,WNW,292,9.6,10.4,57,0.00,CLR,CLR,0.00,WeatherDisplay:10.37,2013-03-19 16:24:00,
2013-03-19 11:29:00,14.7,2.2,30.05,WNW,292,7.1,11.5,57,0.00,CLR,CLR,0.00,WeatherDisplay:10.37,2013-03-19 16:29:00,
2013-03-19 11:35:00,15.3,2.3,30.05,West,270,9.5,10.4,56,0.00,CLR,CLR,0.00,WeatherDisplay:10.37,2013-03-19 16:35:00,
2013-03-19 11:40:00,15.3,2.3,30.05,WSW,248,9.8,12.1,56,0.00,CLR,CLR,0.00,WeatherDisplay:10.37,2013-03-19 16:40:00,
2013-03-19 11:45:00,15.4,2.5,30.05,WNW,292,10.7,13.8,56,0.00,CLR,CLR,0.00,WeatherDisplay:10.37,2013-03-19 16:45:00,
2013-03-19 11:50:00,15.6,2.7,30.05,NW,315,8.9,10.4,56,0.00,CLR,CLR,0.00,WeatherDisplay:10.37,2013-03-19 16:50:00,
2013-03-19 11:55:00,15.6,2.7,30.05,WSW,248,12.4,15.0,56,0.00,CLR,CLR,0.00,WeatherDisplay:10.37,2013-03-19 16:55:00,
2013-03-19 12:00:00,15.6,2.3,30.05,WSW,248,9.7,12.7,55,0.00,CLR,CLR,0.00,WeatherDisplay:10.37,2013-03-19 17:00:00,
2013-03-19 12:05:00,15.8,2.5,30.06,WNW,292,11.6,19.6,55,0.00,CLR,CLR,0.00,WeatherDisplay:10.37,2013-03-19 17:05:00,
2013-03-19 12:11:00,16.0,2.6,30.05,WNW,292,9.5,11.5,55,0.00,CLR,CLR,0.00,WeatherDisplay:10.37,2013-03-19 17:11:00,
2013-03-19 12:16:00,16.2,2.8,30.06,WNW,292,9.9,11.5,55,0.00,CLR,CLR,0.00,WeatherDisplay:10.37,2013-03-19 17:16:00,
2013-03-19 12:21:00,16.3,3.0,30.06,WNW,292,11.7,15.0,55,0.00,CLR,CLR,0.00,WeatherDisplay:10.37,2013-03-19 17:21:00,
2013-03-19 12:27:00,16.5,3.1,30.06,West,270,9.5,16.1,55,0.00,CLR,CLR,0.00,WeatherDisplay:10.37,2013-03-19 17:27:00,
2013-03-19 12:32:00,16.7,2.9,30.06,West,270,9.8,11.5,54,0.00,CLR,CLR,0.00,WeatherDisplay:10.37,2013-03-19 17:32:00,
2013-03-19 12:37:00,16.9,3.1,30.06,WNW,292,10.4,18.4,54,0.00,CLR,CLR,0.00,WeatherDisplay:10.37,2013-03-19 17:37:00,
2013-03-19 12:42:00,17.2,3.8,30.06,West,270,11.3,18.4,55,0.00,CLR,CLR,0.00,WeatherDisplay:10.37,2013-03-19 17:42:00,
2013-03-19 12:47:00,17.4,3.6,30.06,WNW,292,14.1,19.6,54,0.00,CLR,CLR,0.00,WeatherDisplay:10.37,2013-03-19 17:47:00,
2013-03-19 12:52:00,17.2,3.4,30.06,West,270,11.2,18.4,54,0.00,CLR,CLR,0.00,WeatherDisplay:10.37,2013-03-19 17:52:00,
2013-03-19 12:57:00,17.8,3.9,30.06,West,270,9.9,15.4,54,0.00,CLR,CLR,0.00,WeatherDisplay:10.37,2013-03-19 17:57:00,
2013-03-19 13:02:00,17.8,3.9,30.05,WNW,292,12.7,15.0,54,0.00,CLR,CLR,0.00,WeatherDisplay:10.37,2013-03-19 18:02:00,
2013-03-19 13:07:00,18.0,4.1,30.05,WNW,292,8.8,12.7,54,0.00,CLR,CLR,0.00,WeatherDisplay:10.37,2013-03-19 18:07:00,
2013-03-19 13:13:00,18.3,4.4,30.05,West,270,9.7,15.0,54,0.00,CLR,CLR,0.00,WeatherDisplay:10.37,2013-03-19 18:13:00,
2013-03-19 13:18:00,18.7,4.4,30.05,WNW,292,13.0,17.3,53,0.00,CLR,CLR,0.00,WeatherDisplay:10.37,2013-03-19 18:18:00,
2013-03-19 13:23:00,18.7,3.9,30.06,West,270,9.4,11.5,52,0.00,CLR,CLR,0.00,WeatherDisplay:10.37,2013-03-19 18:23:00,
2013-03-19 13:28:00,18.9,4.1,30.06,West,270,15.1,15.1,52,0.00,CLR,CLR,0.00,WeatherDisplay:10.37,2013-03-19 18:28:00,
2013-03-19 13:33:00,18.9,4.1,30.06,West,270,10.9,15.0,52,0.00,CLR,CLR,0.00,WeatherDisplay:10.37,2013-03-19 18:33:00,
2013-03-19 13:39:00,19.0,4.3,30.06,WNW,292,12.4,16.1,52,0.00,CLR,CLR,0.00,WeatherDisplay:10.37,2013-03-19 18:39:00,
2013-03-19 13:44:00,19.2,4.4,30.06,West,270,10.1,16.1,52,0.00,CLR,CLR,0.00,WeatherDisplay:10.37,2013-03-19 18:44:00,
2013-03-19 13:49:00,19.2,4.0,30.07,West,270,14.9,16.1,51,0.00,CLR,CLR,0.00,WeatherDisplay:10.37,2013-03-19 18:49:00,
2013-03-19 13:55:00,19.2,4.4,30.07,WNW,292,12.7,17.3,52,0.00,CLR,CLR,0.00,WeatherDisplay:10.37,2013-03-19 18:55:00,
2013-03-19 14:00:00,19.4,4.2,30.06,WNW,292,7.9,13.8,51,0.00,CLR,CLR,0.00,WeatherDisplay:10.37,2013-03-19 19:00:00,
2013-03-19 14:05:00,19.8,4.9,30.07,West,270,10.7,15.0,52,0.00,CLR,CLR,0.00,WeatherDisplay:10.37,2013-03-19 19:05:00,
2013-03-19 14:10:00,19.6,3.9,30.07,WNW,292,15.5,20.7,50,0.00,CLR,CLR,0.00,WeatherDisplay:10.37,2013-03-19 19:10:00,
2013-03-19 14:16:00,19.6,4.8,30.07,WNW,292,9.4,11.5,52,0.00,CLR,CLR,0.00,WeatherDisplay:10.37,2013-03-19 19:16:00,
2013-03-19 14:22:00,19.8,4.9,30.07,West,270,9.4,13.2,52,0.00,CLR,CLR,0.00,WeatherDisplay:10.37,2013-03-19 19:22:00,
2013-03-19 14:27:00,19.9,4.7,30.07,WNW,292,9.0,12.7,51,0.00,CLR,CLR,0.00,WeatherDisplay:10.37,2013-03-19 19:27:00,
2013-03-19 14:32:00,19.9,4.3,30.07,West,270,14.4,19.6,50,0.00,CLR,CLR,0.00,WeatherDisplay:10.37,2013-03-19 19:32:00,
2013-03-19 14:37:00,19.9,4.7,30.07,WNW,292,12.8,16.8,51,0.00,CLR,CLR,0.00,WeatherDisplay:10.37,2013-03-19 19:37:00,
2013-03-19 14:42:00,20.1,4.9,30.07,NW,315,13.1,13.8,51,0.00,CLR,CLR,0.00,WeatherDisplay:10.37,2013-03-19 19:42:00,
2013-03-19 14:47:00,19.9,4.3,30.07,WNW,292,12.8,19.6,50,0.00,CLR,CLR,0.00,WeatherDisplay:10.37,2013-03-19 19:47:00,
2013-03-19 14:52:00,20.1,4.9,30.07,NNW,338,10.0,18.4,51,0.00,CLR,CLR,0.00,WeatherDisplay:10.37,2013-03-19 19:52:00,
2013-03-19 14:58:00,20.3,4.2,30.07,WNW,292,10.7,17.9,49,0.00,CLR,CLR,0.00,WeatherDisplay:10.37,2013-03-19 19:58:00,
2013-03-19 15:03:00,20.1,4.0,30.07,WSW,248,12.8,16.1,49,0.00,CLR,CLR,0.00,WeatherDisplay:10.37,2013-03-19 20:03:00,
2013-03-19 15:08:00,19.9,3.4,30.07,West,270,13.4,17.3,48,0.00,CLR,CLR,0.00,WeatherDisplay:10.37,2013-03-19 20:08:00,
2013-03-19 15:13:00,19.8,3.7,30.07,West,270,8.8,11.5,49,0.00,CLR,CLR,0.00,WeatherDisplay:10.37,2013-03-19 20:13:00,
2013-03-19 15:18:00,20.5,3.9,30.07,West,270,14.7,16.3,48,0.00,CLR,CLR,0.00,WeatherDisplay:10.37,2013-03-19 20:18:00,
2013-03-19 15:23:00,20.3,3.2,30.07,WNW,292,10.5,15.0,47,0.00,CLR,CLR,0.00,WeatherDisplay:10.37,2013-03-19 20:23:00,
2013-03-19 15:29:00,20.5,2.9,30.08,West,270,11.6,17.3,46,0.00,CLR,CLR,0.00,WeatherDisplay:10.37,2013-03-19 20:29:00,
2013-03-19 15:34:00,21.4,4.2,30.07,NW,315,9.9,13.8,47,0.00,CLR,CLR,0.00,WeatherDisplay:10.37,2013-03-19 20:34:00,
2013-03-19 15:39:00,21.9,4.3,30.08,West,270,10.5,17.3,46,0.00,CLR,CLR,0.00,WeatherDisplay:10.37,2013-03-19 20:39:00,
2013-03-19 15:44:00,21.4,3.3,30.08,WNW,292,13.5,17.3,45,0.00,CLR,CLR,0.00,WeatherDisplay:10.37,2013-03-19 20:44:00,
2013-03-19 15:49:00,20.5,2.5,30.08,NW,315,12.7,17.3,45,0.00,CLR,CLR,0.00,WeatherDisplay:10.37,2013-03-19 20:49:00,
2013-03-19 15:55:00,19.9,2.5,30.08,West,270,12.5,19.6,46,0.00,CLR,CLR,0.00,WeatherDisplay:10.37,2013-03-19 20:55:00,
2013-03-19 16:00:00,19.6,1.6,30.09,WNW,292,12.0,19.6,45,0.00,CLR,CLR,0.00,WeatherDisplay:10.37,2013-03-19 21:00:00,
2013-03-19 16:05:00,19.4,1.0,30.09,WNW,292,14.1,18.4,44,0.00,CLR,CLR,0.00,WeatherDisplay:10.37,2013-03-19 21:05:00,
2013-03-19 16:11:00,19.6,1.2,30.08,NW,315,19.5,23.0,44,0.00,CLR,CLR,0.00,WeatherDisplay:10.37,2013-03-19 21:11:00,
2013-03-19 16:16:00,19.4,1.0,30.09,WNW,292,17.5,27.6,44,0.00,CLR,CLR,0.00,WeatherDisplay:10.37,2013-03-19 21:16:00,
2013-03-19 16:21:00,19.9,2.0,30.09,West,270,17.4,17.4,45,0.00,CLR,CLR,0.00,WeatherDisplay:10.37,2013-03-19 21:21:00,
2013-03-19 16:27:00,20.1,1.2,30.09,NNW,338,14.3,16.1,43,0.00,CLR,CLR,0.00,WeatherDisplay:10.37,2013-03-19 21:27:00,
2013-03-19 16:32:00,19.9,1.0,30.10,West,270,13.9,13.9,43,0.00,CLR,CLR,0.00,WeatherDisplay:10.37,2013-03-19 21:32:00,
2013-03-19 16:37:00,19.9,0.5,30.10,WNW,292,12.4,20.7,42,0.00,CLR,CLR,0.00,WeatherDisplay:10.37,2013-03-19 21:37:00,
2013-03-19 16:43:00,19.9,1.0,30.10,NW,315,12.3,18.4,43,0.00,CLR,CLR,0.00,WeatherDisplay:10.37,2013-03-19 21:43:00,
2013-03-19 16:48:00,19.9,1.0,30.10,West,270,15.1,19.6,43,0.00,CLR,CLR,0.00,WeatherDisplay:10.37,2013-03-19 21:48:00,
2013-03-19 16:53:00,19.6,0.7,30.10,West,270,15.3,15.6,43,0.00,CLR,CLR,0.00,WeatherDisplay:10.37,2013-03-19 21:53:00,
2013-03-19 16:58:00,19.6,1.2,30.10,WNW,292,13.7,16.1,44,0.00,CLR,CLR,0.00,WeatherDisplay:10.37,2013-03-19 21:58:00,
2013-03-19 17:04:00,19.6,1.2,30.11,WNW,292,12.4,15.0,44,0.00,CLR,CLR,0.00,WeatherDisplay:10.37,2013-03-19 22:04:00,
2013-03-19 17:09:00,19.4,1.0,30.10,WSW,248,11.2,15.0,44,0.00,CLR,CLR,0.00,WeatherDisplay:10.37,2013-03-19 22:09:00,
2013-03-19 17:14:00,19.6,1.2,30.11,WNW,292,9.4,15.2,44,0.00,CLR,CLR,0.00,WeatherDisplay:10.37,2013-03-19 22:14:00,
2013-03-19 17:19:00,19.8,1.8,30.11,West,270,10.2,12.7,45,0.00,CLR,CLR,0.00,WeatherDisplay:10.37,2013-03-19 22:19:00,
2013-03-19 17:24:00,19.8,1.3,30.11,NW,315,14.2,16.1,44,0.00,CLR,CLR,0.00,WeatherDisplay:10.37,2013-03-19 22:24:00,
2013-03-19 17:29:00,19.6,1.2,30.11,NW,315,9.0,11.5,44,0.00,CLR,CLR,0.00,WeatherDisplay:10.37,2013-03-19 22:29:00,
2013-03-19 17:34:00,19.2,0.8,30.12,WNW,292,12.6,18.4,44,0.00,CLR,CLR,0.00,WeatherDisplay:10.37,2013-03-19 22:34:00,
2013-03-19 17:39:00,19.0,0.2,30.12,West,270,9.5,15.0,43,0.00,CLR,CLR,0.00,WeatherDisplay:10.37,2013-03-19 22:39:00,
2013-03-19 17:44:00,19.0,0.7,30.12,WNW,292,9.0,12.7,44,0.00,CLR,CLR,0.00,WeatherDisplay:10.37,2013-03-19 22:44:00,
2013-03-19 17:49:00,18.9,0.5,30.12,NW,315,12.3,18.4,44,0.00,CLR,CLR,0.00,WeatherDisplay:10.37,2013-03-19 22:49:00,
2013-03-19 17:55:00,18.7,0.8,30.13,WNW,292,13.0,16.1,45,0.00,CLR,CLR,0.00,WeatherDisplay:10.37,2013-03-19 22:55:00,
2013-03-19 18:00:00,18.3,-0.5,30.13,WNW,292,13.2,19.6,43,0.00,CLR,CLR,0.00,WeatherDisplay:10.37,2013-03-19 23:00:00,
2013-03-19 18:05:00,18.0,-0.8,30.13,NW,315,11.9,19.6,43,0.00,CLR,CLR,0.00,WeatherDisplay:10.37,2013-03-19 23:05:00,
2013-03-19 18:10:00,18.0,-0.8,30.13,WNW,292,10.3,16.1,43,0.00,CLR,CLR,0.00,WeatherDisplay:10.37,2013-03-19 23:10:00,
2013-03-19 18:15:00,17.8,-0.5,30.13,WNW,292,11.0,14.1,44,0.00,CLR,CLR,0.00,WeatherDisplay:10.37,2013-03-19 23:15:00,
2013-03-19 18:21:00,17.4,-1.8,30.13,NW,315,19.7,21.9,42,0.00,CLR,CLR,0.00,WeatherDisplay:10.37,2013-03-19 23:21:00,
2013-03-19 18:26:00,17.1,-2.6,30.14,West,270,17.4,21.9,41,0.00,CLR,CLR,0.00,WeatherDisplay:10.37,2013-03-19 23:26:00,
2013-03-19 18:31:00,16.9,-2.3,30.14,West,270,14.2,17.3,42,0.00,CLR,CLR,0.00,WeatherDisplay:10.37,2013-03-19 23:31:00,
2013-03-19 18:37:00,16.7,-2.0,30.15,WNW,292,13.0,17.3,43,0.00,CLR,CLR,0.00,WeatherDisplay:10.37,2013-03-19 23:37:00,
2013-03-19 18:42:00,16.5,-1.2,30.14,WNW,292,10.5,13.8,45,0.00,CLR,CLR,0.00,WeatherDisplay:10.37,2013-03-19 23:42:00,
2013-03-19 18:47:00,16.2,-1.0,30.15,NW,315,13.3,17.3,46,0.00,CLR,CLR,0.00,WeatherDisplay:10.37,2013-03-19 23:47:00,
2013-03-19 18:52:00,15.6,-1.1,30.15,NNW,338,14.7,19.6,47,0.00,CLR,CLR,0.00,WeatherDisplay:10.37,2013-03-19 23:52:00,
2013-03-19 18:57:00,15.3,-1.4,30.15,WNW,292,12.1,12.1,47,0.00,CLR,CLR,0.00,WeatherDisplay:10.37,2013-03-19 23:57:00,
2013-03-19 19:02:00,14.9,-1.3,30.15,NW,315,16.4,21.9,48,0.00,CLR,CLR,0.00,WeatherDisplay:10.37,2013-03-20 00:02:00,
2013-03-19 19:08:00,14.2,-1.5,30.16,West,270,11.3,15.0,49,0.00,CLR,CLR,0.00,WeatherDisplay:10.37,2013-03-20 00:08:00,
2013-03-19 19:13:00,13.6,-1.6,30.16,NW,315,14.8,18.4,50,0.00,CLR,CLR,0.00,WeatherDisplay:10.37,2013-03-20 00:13:00,
2013-03-19 19:18:00,13.3,-1.5,30.16,NNW,338,11.7,11.7,51,0.00,CLR,CLR,0.00,WeatherDisplay:10.37,2013-03-20 00:18:00,
2013-03-19 19:23:00,12.7,-2.0,30.16,WNW,292,12.7,16.1,51,0.00,CLR,CLR,0.00,WeatherDisplay:10.37,2013-03-20 00:23:00,
2013-03-19 19:28:00,12.6,-1.8,30.16,WNW,292,16.3,19.6,52,0.00,CLR,CLR,0.00,WeatherDisplay:10.37,2013-03-20 00:28:00,
2013-03-19 19:34:00,12.4,-1.9,30.16,NW,315,14.1,19.6,52,0.00,CLR,CLR,0.00,WeatherDisplay:10.37,2013-03-20 00:34:00,
2013-03-19 19:39:00,12.2,-2.1,30.17,WNW,292,11.9,13.8,52,0.00,CLR,CLR,0.00,WeatherDisplay:10.37,2013-03-20 00:39:00,
2013-03-19 19:44:00,12.0,-2.3,30.17,NW,315,12.9,21.0,52,0.00,CLR,CLR,0.00,WeatherDisplay:10.37,2013-03-20 00:44:00,
2013-03-19 19:49:00,12.0,-1.9,30.17,WNW,292,12.0,13.8,53,0.00,CLR,CLR,0.00,WeatherDisplay:10.37,2013-03-20 00:49:00,
2013-03-19 19:54:00,11.7,-1.8,30.17,WNW,292,12.9,15.2,54,0.00,CLR,CLR,0.00,WeatherDisplay:10.37,2013-03-20 00:54:00,
2013-03-19 19:59:00,11.3,-2.1,30.17,WNW,292,14.0,16.1,54,0.00,CLR,CLR,0.00,WeatherDisplay:10.37,2013-03-20 00:59:00,
2013-03-19 20:05:00,11.1,-2.3,30.17,WNW,292,11.9,13.8,54,0.00,CLR,CLR,0.00,WeatherDisplay:10.37,2013-03-20 01:05:00,
2013-03-19 20:10:00,11.1,-2.3,30.17,NW,315,10.4,15.0,54,0.00,CLR,CLR,0.00,WeatherDisplay:10.37,2013-03-20 01:10:00,
2013-03-19 20:15:00,10.8,-2.6,30.17,SSE,158,6.3,9.2,54,0.00,CLR,CLR,0.00,WeatherDisplay:10.37,2013-03-20 01:15:00,
2013-03-19 20:20:00,10.6,-2.4,30.17,WNW,292,9.1,9.2,55,0.00,CLR,CLR,0.00,WeatherDisplay:10.37,2013-03-20 01:20:00,
2013-03-19 20:25:00,10.2,-2.8,30.18,NW,315,12.4,15.0,55,0.00,CLR,CLR,0.00,WeatherDisplay:10.37,2013-03-20 01:25:00,
2013-03-19 20:30:00,10.2,-2.8,30.18,West,270,9.3,11.5,55,0.00,CLR,CLR,0.00,WeatherDisplay:10.37,2013-03-20 01:30:00,
2013-03-19 20:36:00,10.0,-2.6,30.18,WNW,292,8.1,11.5,56,0.00,CLR,CLR,0.00,WeatherDisplay:10.37,2013-03-20 01:36:00,
2013-03-19 20:41:00,9.7,-2.9,30.18,WNW,292,9.6,15.0,56,0.00,CLR,CLR,0.00,WeatherDisplay:10.37,2013-03-20 01:41:00,
2013-03-19 20:46:00,9.7,-2.5,30.18,WNW,292,7.7,11.5,57,0.00,CLR,CLR,0.00,WeatherDisplay:10.37,2013-03-20 01:46:00,
2013-03-19 20:51:00,9.5,-2.7,30.18,West,270,11.2,12.7,57,0.00,CLR,CLR,0.00,WeatherDisplay:10.37,2013-03-20 01:51:00,
2013-03-19 20:57:00,9.5,-3.1,30.18,NW,315,11.2,13.0,56,0.00,CLR,CLR,0.00,WeatherDisplay:10.37,2013-03-20 01:57:00,
2013-03-19 21:02:00,9.3,-3.2,30.18,NW,315,9.5,16.1,56,0.00,CLR,CLR,0.00,WeatherDisplay:10.37,2013-03-20 02:02:00,
2013-03-19 21:07:00,9.1,-3.4,30.18,WNW,292,8.9,12.7,56,0.00,CLR,CLR,0.00,WeatherDisplay:10.37,2013-03-20 02:07:00,
2013-03-19 21:12:00,9.1,-3.4,30.18,West,270,9.6,11.5,56,0.00,CLR,CLR,0.00,WeatherDisplay:10.37,2013-03-20 02:12:00,
2013-03-19 21:17:00,9.0,-3.6,30.18,West,270,11.4,16.1,56,0.00,CLR,CLR,0.00,WeatherDisplay:10.37,2013-03-20 02:17:00,
2013-03-19 21:22:00,9.0,-3.6,30.18,WNW,292,11.0,12.7,56,0.00,CLR,CLR,0.00,WeatherDisplay:10.37,2013-03-20 02:22:00,
2013-03-19 21:27:00,8.8,-3.7,30.18,West,270,9.5,11.5,56,0.00,CLR,CLR,0.00,WeatherDisplay:10.37,2013-03-20 02:27:00,
2013-03-19 21:33:00,8.6,-3.9,30.18,WNW,292,11.1,17.3,56,0.00,CLR,CLR,0.00,WeatherDisplay:10.37,2013-03-20 02:33:00,
2013-03-19 21:38:00,8.8,-3.7,30.18,NW,315,15.5,18.4,56,0.00,CLR,CLR,0.00,WeatherDisplay:10.37,2013-03-20 02:38:00,
2013-03-19 21:43:00,8.6,-3.9,30.18,West,270,11.6,16.1,56,0.00,CLR,CLR,0.00,WeatherDisplay:10.37,2013-03-20 02:43:00,
2013-03-19 21:48:00,8.4,-4.1,30.18,WNW,292,10.5,15.0,56,0.00,CLR,CLR,0.00,WeatherDisplay:10.37,2013-03-20 02:48:00,
2013-03-19 21:53:00,8.4,-4.1,30.19,WNW,292,8.0,13.8,56,0.00,CLR,CLR,0.00,WeatherDisplay:10.37,2013-03-20 02:53:00,
2013-03-19 21:58:00,8.4,-3.7,30.18,WNW,292,11.0,13.8,57,0.00,CLR,CLR,0.00,WeatherDisplay:10.37,2013-03-20 02:58:00,
2013-03-19 22:04:00,8.2,-3.9,30.18,West,270,7.6,13.8,57,0.00,CLR,CLR,0.00,WeatherDisplay:10.37,2013-03-20 03:04:00,
2013-03-19 22:09:00,8.2,-3.5,30.18,WNW,292,12.2,23.0,58,0.00,CLR,CLR,0.00,WeatherDisplay:10.37,2013-03-20 03:09:00,
2013-03-19 22:14:00,8.2,-3.5,30.18,WNW,292,10.4,12.7,58,0.00,CLR,CLR,0.00,WeatherDisplay:10.37,2013-03-20 03:14:00,
2013-03-19 22:19:00,8.1,-3.7,30.18,WNW,292,11.3,14.1,58,0.00,CLR,CLR,0.00,WeatherDisplay:10.37,2013-03-20 03:19:00,
2013-03-19 22:24:00,7.9,-3.5,30.18,WSW,248,10.9,12.7,59,0.00,CLR,CLR,0.00,WeatherDisplay:10.37,2013-03-20 03:24:00,
2013-03-19 22:30:00,7.9,-3.5,30.18,West,270,9.1,12.7,59,0.00,CLR,CLR,0.00,WeatherDisplay:10.37,2013-03-20 03:30:00,
2013-03-19 22:35:00,7.9,-3.1,30.18,WNW,292,8.0,9.2,60,0.00,CLR,CLR,0.00,WeatherDisplay:10.37,2013-03-20 03:35:00,
2013-03-19 22:40:00,7.7,-3.0,30.18,West,270,13.4,17.3,61,0.00,CLR,CLR,0.00,WeatherDisplay:10.37,2013-03-20 03:40:00,
2013-03-19 22:45:00,7.7,-3.0,30.18,West,270,11.2,13.0,61,0.00,CLR,CLR,0.00,WeatherDisplay:10.37,2013-03-20 03:45:00,
2013-03-19 22:50:00,7.7,-2.6,30.18,WNW,292,11.0,15.9,62,0.00,CLR,CLR,0.00,WeatherDisplay:10.37,2013-03-20 03:50:00,
2013-03-19 22:55:00,7.7,-3.0,30.18,WNW,292,12.3,16.1,61,0.00,CLR,CLR,0.00,WeatherDisplay:10.37,2013-03-20 03:55:00,
2013-03-19 23:00:00,7.7,-3.0,30.18,West,270,9.8,13.8,61,0.00,CLR,CLR,0.00,WeatherDisplay:10.37,2013-03-20 04:00:00,
2013-03-19 23:01:00,7.7,-3.0,30.18,NW,315,9.7,11.5,61,0.00,CLR,CLR,0.00,WeatherDisplay:10.37,2013-03-20 04:01:00,
2013-03-19 23:07:00,7.7,-3.0,30.18,West,270,12.2,19.6,61,0.00,CLR,CLR,0.00,WeatherDisplay:10.37,2013-03-20 04:07:00,
2013-03-19 23:12:00,7.5,-3.1,30.18,WNW,292,9.7,13.8,61,0.00,CLR,CLR,0.00,WeatherDisplay:10.37,2013-03-20 04:12:00,
2013-03-19 23:17:00,7.5,-3.1,30.18,West,270,10.1,10.1,61,0.00,CLR,CLR,0.00,WeatherDisplay:10.37,2013-03-20 04:17:00,
2013-03-19 23:22:00,7.5,-3.1,30.18,West,270,10.2,10.4,61,0.00,CLR,CLR,0.00,WeatherDisplay:10.37,2013-03-20 04:22:00,
2013-03-19 23:27:00,7.3,-3.3,30.18,WNW,292,8.5,9.2,61,0.00,CLR,CLR,0.00,WeatherDisplay:10.37,2013-03-20 04:27:00,
2013-03-19 23:32:00,7.2,-3.5,30.18,WNW,292,13.3,23.0,61,0.00,CLR,CLR,0.00,WeatherDisplay:10.37,2013-03-20 04:32:00,
2013-03-19 23:38:00,7.0,-3.3,30.18,WNW,292,9.9,11.5,62,0.00,CLR,CLR,0.00,WeatherDisplay:10.37,2013-03-20 04:38:00,
2013-03-19 23:43:00,7.0,-3.3,30.19,NW,315,9.7,15.0,62,0.00,CLR,CLR,0.00,WeatherDisplay:10.37,2013-03-20 04:43:00,
2013-03-19 23:48:00,7.0,-3.3,30.18,WNW,292,10.6,13.8,62,0.00,CLR,CLR,0.00,WeatherDisplay:10.37,2013-03-20 04:48:00,
2013-03-19 23:53:00,6.6,-3.7,30.18,NW,315,8.2,11.5,62,0.00,CLR,CLR,0.00,WeatherDisplay:10.37,2013-03-20 04:53:00,
2013-03-19 23:58:00,6.6,-3.7,30.19,WNW,292,8.9,9.2,62,0.00,CLR,CLR,0.00,WeatherDisplay:10.37,2013-03-20 04:58:00,